Location: Dealu Mare
(46.0500°N, 22.8167°E)
Time: 09:40:18
(UTC+00:00)

SJ 16-02 - Pass Details

Date: 15 January 2026
Orbit: 583 x 594 km, 75.0° (Epoch: 10 February)

Event Time Altitude Azimuth Distance (km) Brightness Sun altitude
Rises 04:43:18 0° 165° (SSE) 2,792 5.2 -14.2°
Reaches altitude 10° 04:45:51 10° 150° (SSE) 1,897 4.5 -13.7°
Maximum altitude 04:49:08 22° 99° (E) 1,283 4.0 -13.2°
Drops below altitude 10° 04:52:26 10° 47° (NE) 1,911 4.3 -12.6°
Sets 04:55:01 0° 33° (NNE) 2,817 4.9 -12.2°
